Location: Aiyekoto
(8.4333°N, 4.3667°E)
Time: 01:22:28
(UTC+00:00)

PAYLOAD A - Pass Details

Date: 07 June 2020
Orbit: 692 x 832 km, 98.3° (Epoch: 13 July)

Event Time Altitude Azimuth Distance (km) Brightness Sun altitude
Rises 03:47:40 0° 359° (N) 3,119 7.5 -22.2°
Reaches altitude 10° 03:49:59 10° 352° (N) 2,218 6.6 -21.7°
Maximum altitude 03:54:33 41° 283° (WNW) 1,071 4.4 -20.7°
Enters shadow 03:55:00 40° 269° (W) 1,090 4.3 -20.6°
